EW7144 Weather Reports


Display with metric or nautical units.
time (UTC)temp
F
wind
direction
speed
MPH
gust
MPH
rain 1hr
in
rain 24hr
in
rain mn
in
humidity
%
barometer
mb
20210510044404 62 290 2.0 3.0 0.06 0.16 0.10 94 1020.7
20210510043905 62 270 2.0 6.0 0.06 0.15 0.09 94 1020.8
20210510043404 62 295 3.0 7.0 0.06 0.14 0.08 94 1020.9
20210510042905 62 291 2.0 5.0 0.05 0.13 0.07 94 1020.8
20210510042405 62 315 2.0 3.0 0.04 0.12 0.06 94 1020.9
20210510041905 62 313 2.0 5.0 0.04 0.12 0.06 94 1021.0
20210510041405 62 338 2.0 5.0 0.04 0.12 0.06 94 1020.9
20210510040904 62 324 2.0 3.0 0.03 0.11 0.05 94 1021.0
20210510040404 62 294 2.0 3.0 0.03 0.11 0.05 94 1020.9
20210510035904 62 309 2.0 5.0 0.03 0.11 0.05 94 1020.9
20210510035405 62 327 2.0 3.0 0.02 0.10 0.04 94 1020.9
20210510034904 62 311 3.0 6.0 0.02 0.10 0.04 94 1020.8
20210510034404 62 309 3.0 5.0 0.02 0.10 0.04 94 1020.8
20210510033905 62 327 2.0 7.0 0.01 0.09 0.03 94 1020.8
20210510033404 63 282 2.0 6.0 0.00 0.08 0.02 94 1020.8
20210510032905 63 291 2.0 3.0 0.00 0.08 0.02 94 1020.7
20210510032405 63 276 1.0 3.0 0.00 0.08 0.02 94 1020.7
20210510031904 63 290 2.0 3.0 0.00 0.08 0.02 94 1020.8
20210510031405 63 268 1.0 5.0 0.00 0.08 0.02 94 1020.8
20210510030904 63 269 2.0 5.0 0.00 0.08 0.02 94 1020.9
20210510030405 63 297 0.0 3.0 0.00 0.08 0.02 94 1020.9
20210510025904 63 209 2.0 5.0 0.00 0.08 0.02 94 1021.0
20210510025404 62 291 1.0 5.0 0.00 0.08 0.02 94 1021.1
20210510024904 62 265 1.0 8.0 0.00 0.08 0.02 94 1021.1
20210510024405 62 246 2.0 3.0 0.00 0.08 0.02 94 1021.1
20210510023905 62 265 2.0 6.0 0.00 0.08 0.02 94 1021.2
20210510023405 62 277 2.0 7.0 0.00 0.08 0.02 94 1021.3
20210510022904 62 282 2.0 6.0 0.00 0.08 0.02 94 1021.4
20210510022404 62 286 3.0 8.0 0.00 0.08 0.02 94 1021.4
20210510021904 62 279 2.0 8.0 0.00 0.08 0.02 94 1021.4
20210510021405 63 271 1.0 5.0 0.00 0.08 0.02 94 1021.4
20210510020905 62 280 2.0 6.0 0.00 0.08 0.02 94 1021.5
20210510020405 62 287 2.0 8.0 0.00 0.08 0.02 94 1021.6
20210510015904 63 286 3.0 6.0 0.00 0.08 0.02 94 1021.7
20210510015404 63 277 3.0 7.0 0.00 0.08 0.02 94 1021.6
20210510014904 63 286 2.0 7.0 0.00 0.08 0.02 94 1021.7
20210510014404 63 290 2.0 3.0 0.00 0.08 0.02 94 1021.6
20210510013904 62 267 3.0 8.0 0.00 0.08 0.02 94 1021.7
20210510013404 62 257 2.0 5.0 0.00 0.08 0.02 94 1021.7
20210510012904 62 308 2.0 6.0 0.00 0.08 0.02 94 1021.7
20210510012404 62 306 3.0 5.0 0.00 0.08 0.02 94 1021.6
20210510011904 62 266 2.0 5.0 0.00 0.08 0.02 94 1021.6
20210510011405 61 287 2.0 8.0 0.00 0.08 0.02 94 1021.7
20210510010904 61 255 2.0 5.0 0.00 0.08 0.02 94 1021.8
20210510010404 61 279 3.0 7.0 0.00 0.08 0.02 94 1021.9
20210510005903 61 295 4.0 10.0 0.00 0.08 0.02 94 1022.0
20210510005404 61 287 3.0 5.0 0.00 0.08 0.02 94 1021.9
20210510004904 61 280 3.0 7.0 0.00 0.08 0.02 94 1022.0
20210510004405 61 284 3.0 8.0 0.00 0.08 0.02 94 1022.1
20210510003904 61 278 3.0 7.0 0.00 0.09 0.02 94 1022.1
20210510003404 61 284 3.0 6.0 0.00 0.09 0.02 94 1022.2
20210510002904 61 285 3.0 8.0 0.00 0.09 0.02 94 1022.2
20210510002404 61 298 2.0 7.0 0.00 0.09 0.02 94 1022.4
20210510001904 61 265 3.0 8.0 0.00 0.09 0.02 94 1022.4
20210510001404 61 266 2.0 7.0 0.00 0.09 0.02 94 1022.5
20210510000904 61 261 3.0 7.0 0.00 0.09 0.02 94 1022.6
20210510000404 61 273 3.0 7.0 0.00 0.09 0.02 94 1022.7
20210509235904 61 267 3.0 7.0 0.00 0.09 0.02 94 1022.7
20210509235404 61 273 2.0 7.0 0.00 0.09 0.02 94 1022.8
20210509234904 61 282 3.0 6.0 0.00 0.09 0.02 94 1022.9
20210509234404 61 296 2.0 6.0 0.00 0.11 0.02 94 1022.9
20210509233904 61 276 3.0 7.0 0.00 0.12 0.02 94 1022.9
20210509233404 61 282 3.0 8.0 0.00 0.12 0.02 94 1023.0
20210509232904 61 300 3.0 7.0 0.00 0.12 0.02 94 1023.0
20210509232404 61 297 3.0 7.0 0.00 0.12 0.02 94 1023.1
20210509231905 61 280 2.0 8.0 0.00 0.12 0.02 94 1023.1
20210509231404 61 273 4.0 10.0 0.00 0.12 0.02 94 1023.1
20210509230904 61 289 3.0 8.0 0.00 0.12 0.02 94 1023.1
20210509230404 61 286 3.0 8.0 0.00 0.12 0.02 94 1023.0
20210509225904 61 289 4.0 12.0 0.00 0.12 0.02 94 1023.0
20210509225404 61 294 6.0 12.0 0.00 0.12 0.02 94 1023.0
20210509224904 61 293 5.0 9.0 0.00 0.12 0.02 94 1022.9
20210509224404 61 290 3.0 7.0 0.00 0.12 0.02 94 1022.9
20210509223905 61 311 5.0 8.0 0.00 0.12 0.02 94 1022.9
20210509223404 60 297 4.0 9.0 0.00 0.12 0.02 94 1022.9
20210509222904 60 317 5.0 12.0 0.00 0.12 0.02 94 1023.0
20210509222404 60 327 6.0 12.0 0.00 0.12 0.02 94 1023.0
20210509221904 60 323 5.0 12.0 0.00 0.12 0.02 94 1022.9
20210509221404 60 333 4.0 10.0 0.00 0.12 0.02 94 1022.8
20210509220904 60 314 3.0 8.0 0.00 0.12 0.02 94 1022.7
20210509220404 60 328 3.0 8.0 0.00 0.12 0.02 94 1022.8
20210509215904 61 318 3.0 8.0 0.00 0.12 0.02 94 1022.7
20210509215404 61 310 3.0 7.0 0.00 0.12 0.02 94 1022.5
20210509214904 60 304 3.0 7.0 0.00 0.12 0.02 94 1022.4
20210509214405 60 283 2.0 6.0 0.00 0.12 0.02 94 1022.3
20210509213905 61 304 2.0 6.0 0.00 0.12 0.02 94 1022.3
20210509213405 60 284 2.0 7.0 0.00 0.12 0.02 94 1022.3
20210509212904 60 295 4.0 7.0 0.00 0.12 0.02 94 1022.5
20210509212405 60 294 5.0 8.0 0.00 0.13 0.02 94 1022.5
20210509211904 60 301 4.0 9.0 0.00 0.13 0.02 94 1022.6
20210509211404 60 307 3.0 8.0 0.00 0.13 0.02 94 1022.7
20210509210904 60 284 4.0 8.0 0.00 0.13 0.02 94 1022.7
20210509210405 60 275 3.0 7.0 0.00 0.13 0.02 94 1022.6
20210509205905 60 287 5.0 10.0 0.00 0.13 0.02 94 1022.6
20210509205404 60 287 3.0 9.0 0.00 0.13 0.02 94 1022.6
20210509204905 60 300 5.0 10.0 0.00 0.13 0.02 94 1022.5
20210509204404 60 295 3.0 8.0 0.00 0.13 0.02 94 1022.5
20210509203904 60 299 4.0 9.0 0.00 0.13 0.02 94 1022.5
20210509203404 60 295 6.0 10.0 0.00 0.14 0.02 94 1022.6
20210509202904 60 280 5.0 9.0 0.00 0.14 0.02 94 1022.5
20210509202404 60 301 3.0 8.0 0.00 0.14 0.02 93 1022.5
20210509201904 60 295 4.0 10.0 0.00 0.14 0.02 94 1022.4
20210509201405 60 300 4.0 8.0 0.00 0.15 0.02 94 1022.4
20210509200905 60 282 5.0 10.0 0.00 0.16 0.02 93 1022.4
20210509200404 60 326 5.0 10.0 0.00 0.16 0.02 94 1022.3
20210509195905 60 303 5.0 8.0 0.00 0.18 0.02 94 1022.1
20210509195404 60 303 3.0 8.0 0.00 0.20 0.02 93 1022.0
20210509194904 60 303 3.0 7.0 0.00 0.21 0.02 93 1022.0
20210509194404 60 288 3.0 7.0 0.00 0.24 0.02 93 1021.8
20210509193905 60 238 2.0 5.0 0.00 0.26 0.02 93 1021.6
20210509193405 60 252 1.0 6.0 0.00 0.26 0.02 94 1021.5
20210509192904 60 236 2.0 8.0 0.00 0.26 0.02 93 1021.4
20210509192404 60 279 3.0 7.0 0.00 0.27 0.02 93 1021.4
20210509191905 60 286 2.0 8.0 0.00 0.27 0.02 94 1021.4
20210509191405 60 283 3.0 9.0 0.01 0.28 0.02 94 1021.3
20210509190905 60 277 2.0 8.0 0.01 0.28 0.02 94 1021.3
20210509190404 60 256 3.0 10.0 0.01 0.29 0.02 94 1021.3
20210509185904 60 278 3.0 8.0 0.01 0.30 0.02 94 1021.3
20210509185405 60 289 3.0 7.0 0.01 0.32 0.02 94 1021.3
20210509184904 60 270 3.0 9.0 0.01 0.33 0.02 94 1021.2
20210509184404 60 253 5.0 9.0 0.01 0.35 0.02 94 1021.2
20210509183904 60 270 5.0 13.0 0.01 0.36 0.02 94 1021.1
20210509183404 60 310 3.0 9.0 0.01 0.37 0.02 93 1021.1
20210509182904 60 276 5.0 9.0 0.01 0.38 0.02 93 1021.1
20210509182404 60 280 5.0 10.0 0.02 0.40 0.02 93 1021.1
20210509181904 60 287 5.0 8.0 0.02 0.41 0.02 93 1021.0
20210509181405 60 280 6.0 13.0 0.01 0.41 0.01 93 1021.1
20210509180904 60 292 5.0 10.0 0.01 0.44 0.01 93 1021.0
20210509180405 60 285 5.0 12.0 0.01 0.44 0.01 93 1021.0
20210509175904 60 286 7.0 12.0 0.01 0.44 0.01 93 1021.0
20210509175405 60 302 5.0 8.0 0.01 0.45 0.01 93 1021.0
20210509174906 60 297 7.0 12.0 0.01 0.45 0.01 93 1021.0
20210509174404 60 290 5.0 12.0 0.01 0.45 0.01 93 1021.0
20210509173903 60 309 6.0 12.0 0.01 0.46 0.01 93 1021.0
20210509173404 60 287 6.0 13.0 0.01 0.46 0.01 93 1021.0
20210509172905 61 298 6.0 16.0 0.01 0.46 0.01 94 1021.1
20210509172404 61 268 7.0 15.0 0.00 0.46 0.00 94 1021.1
20210509171904 61 310 4.0 10.0 0.00 0.46 0.00 94 1021.0
20210509171404 61 263 6.0 12.0 0.00 0.47 0.00 94 1020.9
20210509170904 61 274 5.0 12.0 0.00 0.47 0.00 94 1020.9
20210509170404 61 297 3.0 9.0 0.00 0.48 0.00 94 1020.8
20210509165904 61 288 3.0 7.0 0.00 0.49 0.00 94 1020.8
20210509165404 61 261 3.0 7.0 0.00 0.50 0.00 94 1020.8
20210509164904 61 277 5.0 10.0 0.00 0.51 0.00 94 1020.7
20210509164404 61 246 3.0 10.0 0.00 0.52 0.00 94 1020.8
20210509163904 61 287 5.0 10.0 0.00 0.52 0.00 94 1020.9
20210509163404 61 270 5.0 10.0 0.00 0.52 0.00 94 1020.8
20210509162903 61 296 6.0 10.0 0.00 0.52 0.00 94 1020.9
20210509162404 61 303 5.0 10.0 0.00 0.52 0.00 94 1020.8
20210509161904 61 286 5.0 13.0 0.00 0.54 0.00 94 1020.8
20210509161404 61 301 5.0 12.0 0.00 0.54 0.00 94 1020.8
20210509160905 61 273 3.0 8.0 0.00 0.54 0.00 93 1020.8
20210509160404 61 286 3.0 12.0 0.00 0.55 0.00 93 1020.8
20210509155905 61 270 3.0 7.0 0.00 0.55 0.00 93 1020.9
20210509155404 61 296 3.0 8.0 0.00 0.55 0.00 93 1020.9
20210509154905 61 286 3.0 8.0 0.00 0.55 0.00 93 1020.9
20210509154404 61 286 5.0 10.0 0.00 0.55 0.00 93 1020.9
20210509153904 61 277 4.0 10.0 0.00 0.55 0.00 93 1020.9
20210509153404 61 298 7.0 13.0 0.00 0.55 0.00 93 1020.9
20210509152904 61 269 5.0 12.0 0.00 0.55 0.00 93 1020.9
20210509152404 61 271 7.0 12.0 0.00 0.55 0.00 93 1020.9
20210509151905 61 278 5.0 13.0 0.00 0.55 0.00 93 1020.9
20210509151404 61 277 7.0 13.0 0.00 0.55 0.00 93 1020.9
20210509150904 61 290 7.0 12.0 0.00 0.55 0.00 94 1020.8
20210509150404 61 294 5.0 12.0 0.00 0.55 0.00 94 1020.9
20210509145904 61 273 6.0 12.0 0.00 0.56 0.00 94 1020.8
20210509145404 61 287 7.0 14.0 0.00 0.56 0.00 94 1020.7
20210509144904 61 291 4.0 13.0 0.00 0.57 0.00 94 1020.7
20210509144404 61 293 5.0 9.0 0.00 0.57 0.00 94 1020.8
20210509143904 61 284 4.0 10.0 0.00 0.57 0.00 93 1020.8
20210509143404 62 298 4.0 13.0 0.00 0.58 0.00 93 1020.8
20210509142904 62 288 3.0 10.0 0.00 0.58 0.00 93 1020.8
20210509142405 62 251 4.0 14.0 0.00 0.58 0.00 93 1020.9
20210509141904 62 301 5.0 10.0 0.00 0.58 0.00 93 1020.9
20210509141404 62 293 5.0 12.0 0.00 0.60 0.00 93 1020.9
20210509140904 62 270 4.0 8.0 0.00 0.62 0.00 93 1020.9
20210509140404 62 287 5.0 12.0 0.00 0.62 0.00 94 1020.9
20210509135905 62 290 4.0 10.0 0.00 0.62 0.00 93 1020.9
20210509135404 62 296 4.0 12.0 0.00 0.62 0.00 94 1020.9
20210509134904 62 276 6.0 12.0 0.00 0.62 0.00 94 1020.9
20210509134404 62 283 5.0 12.0 0.00 0.62 0.00 94 1020.9
20210509133904 62 305 4.0 12.0 0.00 0.62 0.00 93 1021.0
20210509133404 62 277 4.0 10.0 0.00 0.62 0.00 94 1021.0
20210509132904 62 257 6.0 13.0 0.00 0.62 0.00 93 1020.8
20210509132404 62 291 4.0 8.0 0.00 0.63 0.00 94 1020.7
20210509131904 62 298 6.0 12.0 0.00 0.63 0.00 94 1020.6
20210509131403 62 283 5.0 12.0 0.00 0.63 0.00 93 1020.7
20210509130904 62 287 5.0 9.0 0.00 0.64 0.00 93 1020.7
20210509130405 62 268 4.0 12.0 0.00 0.64 0.00 93 1020.6
20210509125906 62 288 3.0 9.0 0.00 0.65 0.00 93 1020.6
20210509125406 62 294 3.0 12.0 0.00 0.66 0.00 93 1020.4
20210509124907 62 289 3.0 8.0 0.00 0.66 0.00 93 1020.4
20210509124407 62 280 3.0 9.0 0.00 0.66 0.00 93 1020.2
20210509123907 62 298 3.0 10.0 0.01 0.66 0.00 93 1020.3
20210509123407 62 262 3.0 10.0 0.01 0.66 0.00 93 1020.3
20210509122907 62 280 3.0 7.0 0.01 0.66 0.00 93 1020.3
20210509122406 62 275 3.0 9.0 0.02 0.66 0.00 93 1020.3
20210509121906 62 271 2.0 9.0 0.02 0.67 0.00 93 1020.4
20210509121406 62 245 2.0 6.0 0.02 0.68 0.00 93 1020.4
20210509120907 62 260 3.0 9.0 0.02 0.68 0.00 93 1020.4
20210509120406 63 265 3.0 8.0 0.03 0.68 0.00 93 1020.4
20210509115906 62 265 3.0 9.0 0.04 0.68 0.68 93 1020.4
20210509115406 62 281 5.0 8.0 0.04 0.68 0.68 93 1020.4
20210509114907 63 266 4.0 10.0 0.04 0.68 0.68 93 1020.4
20210509114406 62 293 3.0 8.0 0.04 0.68 0.68 93 1020.4
20210509113906 62 275 5.0 9.0 0.04 0.68 0.67 93 1020.4
20210509113406 63 266 4.0 9.0 0.04 0.69 0.67 93 1020.4
20210509112907 63 276 5.0 8.0 0.04 0.70 0.67 93 1020.5
20210509112406 62 273 4.0 8.0 0.03 0.70 0.66 93 1020.4
20210509111906 63 263 4.0 8.0 0.03 0.70 0.66 93 1020.5
20210509111407 63 292 4.0 9.0 0.03 0.71 0.66 93 1020.5
20210509110907 63 290 3.0 8.0 0.03 0.72 0.66 93 1020.6
20210509110406 63 291 3.0 9.0 0.02 0.72 0.65 93 1020.7
20210509105906 63 286 4.0 9.0 0.01 0.71 0.64 93 1020.7
20210509105406 63 291 5.0 13.0 0.01 0.71 0.64 93 1020.7
20210509104906 63 311 5.0 12.0 0.01 0.71 0.64 93 1020.7
20210509104406 63 286 6.0 14.0 0.01 0.71 0.64 93 1020.7
20210509103906 63 309 8.0 13.0 0.00 0.70 0.63 93 1020.7
20210509103407 63 305 8.0 12.0 0.00 0.70 0.63 93 1020.7
20210509102907 63 311 8.0 14.0 0.00 0.70 0.63 93 1020.7
20210509102407 63 323 7.0 16.0 0.00 0.70 0.63 93 1020.7
20210509101907 63 319 6.0 13.0 0.00 0.70 0.63 93 1020.7
20210509101406 63 335 6.0 12.0 0.00 0.70 0.63 93 1020.7
20210509100907 63 324 7.0 13.0 0.00 0.70 0.63 93 1020.7
20210509100407 63 304 10.0 14.0 0.00 0.70 0.63 93 1020.7
20210509095907 63 322 9.0 14.0 0.00 0.70 0.63 93 1020.7
20210509095406 63 306 10.0 15.0 0.00 0.70 0.63 93 1020.7
20210509094908 63 307 9.0 15.0 0.00 0.70 0.63 93 1020.7
20210509094407 63 314 9.0 15.0 0.00 0.70 0.63 93 1020.7
20210509093907 63 308 9.0 16.0 0.00 0.70 0.63 93 1020.7
20210509093407 63 307 9.0 16.0 0.00 0.70 0.63 93 1020.7
20210509092908 63 308 9.0 15.0 0.00 0.70 0.63 93 1020.7
20210509092408 63 300 9.0 17.0 0.00 0.70 0.63 93 1020.7
20210509091907 63 302 10.0 17.0 0.00 0.70 0.63 93 1020.7
20210509091407 63 304 10.0 16.0 0.00 0.70 0.63 93 1020.7
20210509090907 63 306 9.0 16.0 0.00 0.70 0.63 93 1020.7
20210509090407 63 298 10.0 17.0 0.00 0.70 0.63 93 1020.7
20210509085907 63 308 10.0 16.0 0.00 0.70 0.63 93 1020.7
20210509085406 63 329 9.0 16.0 0.00 0.70 0.63 93 1020.6
20210509084907 63 331 10.0 16.0 0.00 0.70 0.63 93 1020.6
20210509084406 63 306 11.0 17.0 0.00 0.70 0.63 93 1020.6
20210509083907 63 320 11.0 17.0 0.00 0.70 0.63 93 1020.6
20210509083406 63 309 10.0 20.0 0.00 0.70 0.63 93 1020.5
20210509082906 63 306 10.0 20.0 0.00 0.70 0.63 93 1020.5
20210509082407 63 325 9.0 16.0 0.00 0.70 0.63 93 1020.4
20210509081908 63 318 10.0 18.0 0.00 0.70 0.63 93 1020.4
20210509081406 63 323 12.0 20.0 0.00 0.70 0.63 93 1020.3
20210509080907 63 307 9.0 16.0 0.00 0.70 0.63 93 1020.3
20210509080406 63 310 11.0 17.0 0.00 0.70 0.63 93 1020.2
20210509075907 63 303 11.0 20.0 0.00 0.70 0.63 93 1020.1
20210509075406 63 317 9.0 15.0 0.00 0.70 0.63 93 1020.0
20210509074906 63 294 11.0 16.0 0.00 0.70 0.63 93 1020.0
20210509074407 63 308 10.0 17.0 0.00 0.70 0.63 93 1020.0
20210509073907 63 299 10.0 16.0 0.00 0.70 0.63 93 1020.0
20210509073407 63 322 9.0 17.0 0.00 0.70 0.63 93 1020.0
20210509072906 63 297 12.0 20.0 0.00 0.70 0.63 93 1020.0
20210509072407 63 312 10.0 18.0 0.00 0.70 0.63 93 1020.1
20210509071907 63 301 11.0 18.0 0.00 0.70 0.63 93 1020.1
20210509071406 63 318 11.0 16.0 0.00 0.70 0.63 93 1020.1
20210509070906 63 291 10.0 16.0 0.00 0.70 0.63 93 1020.1
20210509070406 63 302 12.0 18.0 0.00 0.70 0.63 93 1020.0
20210509065907 63 331 11.0 22.0 0.00 0.70 0.63 93 1020.1
20210509065406 63 328 12.0 20.0 0.00 0.70 0.63 93 1020.1
20210509064906 63 318 12.0 20.0 0.00 0.70 0.63 93 1020.0
20210509064406 63 314 13.0 20.0 0.01 0.70 0.63 93 1019.8
20210509063907 63 305 12.0 20.0 0.01 0.70 0.63 93 1019.8
20210509063406 63 339 10.0 20.0 0.01 0.70 0.63 93 1019.6
20210509062906 63 309 12.0 20.0 0.01 0.70 0.63 93 1019.5
20210509062407 63 316 13.0 18.0 0.01 0.70 0.63 93 1019.5
20210509061907 63 310 11.0 20.0 0.01 0.70 0.63 93 1019.3
20210509061406 63 304 12.0 20.0 0.01 0.70 0.63 93 1019.2
20210509060906 64 317 14.0 23.0 0.01 0.70 0.63 93 1019.1
20210509060407 64 320 12.0 21.0 0.01 0.70 0.63 93 1019.1
20210509055907 64 303 12.0 23.0 0.01 0.70 0.63 93 1019.2
20210509055407 64 291 14.0 25.0 0.01 0.70 0.63 93 1019.2
20210509054907 64 327 13.0 24.0 0.01 0.70 0.63 93 1019.1
20210509054407 63 314 12.0 21.0 0.00 0.69 0.62 93 1019.0
20210509053907 63 323 12.0 22.0 0.00 0.69 0.62 93 1019.1
20210509053407 63 338 11.0 21.0 0.00 0.69 0.62 93 1019.0
20210509052906 63 333 10.0 18.0 0.00 0.69 0.62 93 1019.0
20210509052407 63 332 11.0 20.0 0.00 0.69 0.62 93 1019.1
20210509051907 64 333 12.0 17.0 0.00 0.69 0.62 93 1019.1
20210509051406 64 338 10.0 17.0 0.00 0.69 0.62 93 1019.2
20210509050906 64 338 13.0 18.0 0.00 0.69 0.62 93 1019.2
20210509050406 64 349 11.0 20.0 0.00 0.69 0.62 93 1019.2
20210509045907 64 329 10.0 16.0 0.00 0.69 0.62 93 1019.2
20210509045406 64 322 12.0 18.0 0.00 0.69 0.62 93 1019.3
20210509044907 64 313 11.0 18.0 0.00 0.69 0.62 93 1019.3